User: anonymous   Login
Location: Unspecified
(0.0000°N, 0.0000°E)
Time: 04:29:23
(UTC+02:00)
Language:

H-2A R/B - Orbit

View from above orbital plane
View from above orbital plane
View from above satellite
View from above satellite

Ground track
Ground track

The orbit data is extracted from the following two-line orbital elements,

1 28932U 06002B   17146.16030887 +.00000573 +00000-0 +59521-4 0  9995
2 28932 098.2073 068.1604 0090725 024.5064 106.6830 14.91351155614521
Epoch (UTC): 26 May 2017 03:50:50
Eccentricity: 0.0090725
inclination: 98.2073°
perigee height: 530 km
apogee height: 657 km
right ascension of ascending node: 68.1604°
argument of perigee: 24.5064°
revolutions per day: 14.91351155
mean anomaly at epoch: 106.6830°
orbit number at epoch: 61452

The dashed part of the orbit path shows where the satellite is in the earth's shadow,  

DLR